Tracking 23114 objects as of 14-May-2021
HD Live streaming from Space Station
objects crossing your sky now

STARLINK-2481

Track STARLINK-2481 now!
10-day predictions
STARLINK-2481 is classified as:


NORAD ID: 48138
Int'l Code: 2021-027AY
Perigee: 389.9 km
Apogee: 391.4 km
Inclination: 53.0 °
Period: 92.2 minutes
Semi major axis: 6761 km
RCS: Unknown
Launch date: April 7, 2021
Source: United States (US)
Launch site: AIR FORCE EASTERN TEST RANGE (AFETR)
aabbcc
Your satellite tracking list
Your tracking list is empty




NASA's NSSDC Master Catalog

Two Line Element Set (TLE):
1 48138U 21027AY  21133.83334491 -.01101780  00000-0 -13960-1 0  9991
2 48138  53.0465 160.9358 0001111  64.5442 280.8123 15.61431674  6558
Source of the keplerian elements: AFSPC